FW5398 Weather Reports


time (UTC)temp
F
wind
direction
speed
knots
gust
knots
rain 1hr
in
rain 24hr
in
rain mn
in
humidity
%
barometer
mb
20260505051507 43 201 9.6 19.1 0.00 0.23 0.00 83 1006.5
20260505041609 44 228 12.2 19.1 0.00 0.23 0.00 82 1005.7
20260505040053 44 176 11.3 20.0 0.00 0.23 0.00 83 1005.5
20260505034550 44 205 10.4 18.2 0.00 0.23 0.00 82 1005.2
20260505033048 45 183 14.8 23.5 0.00 0.23 0.00 82 1005.1
20260505031545 44 197 13.0 20.9 0.00 0.23 0.00 82 1004.9
20260505030055 44 206 10.4 21.7 0.00 0.23 0.00 82 1004.7
20260505024539 44 231 12.2 19.1 0.00 0.23 0.23 82 1004.4
20260505023039 44 203 14.8 21.7 0.00 0.23 0.23 81 1004.1
20260505021549 44 216 13.0 22.6 0.00 0.23 0.23 82 1004.2
20260505020049 45 220 12.2 19.1 0.00 0.23 0.23 82 1004.0
20260505014536 45 214 12.2 23.5 0.00 0.23 0.23 83 1003.8
20260505013034 46 207 13.9 25.2 0.00 0.23 0.23 84 1003.4
20260505011535 46 226 13.9 24.3 0.00 0.23 0.23 85 1003.4
20260505010049 46 213 13.0 22.6 0.00 0.23 0.23 85 1003.3
20260505004532 46 184 14.8 25.2 0.00 0.23 0.23 85 1003.3
20260505003031 45 198 11.3 25.2 0.00 0.23 0.23 86 1003.2
20260505001530 46 177 13.9 24.3 0.00 0.23 0.23 87 1002.9
20260505000031 46 203 14.8 19.1 0.00 0.23 0.23 86 1002.8
20260504234524 46 222 13.9 26.1 0.00 0.25 0.23 82 1002.6
20260504233025 47 197 13.0 22.6 0.00 0.25 0.23 81 1002.4
20260504231521 48 185 14.8 26.1 0.00 0.25 0.23 80 1001.9
20260504230022 46 221 10.4 19.1 0.00 0.25 0.23 81 1001.9
20260504224631 47 239 11.3 20.9 0.00 0.32 0.23 80 1001.8
20260504223021 48 229 13.0 19.1 0.00 0.32 0.23 80 1001.6
20260504221517 48 195 11.3 20.0 0.00 0.32 0.23 79 1001.5
20260504220016 48 251 12.2 20.9 0.00 0.32 0.23 79 1001.6
20260504214523 48 168 13.0 20.0 0.00 0.37 0.23 78 1001.4
20260504213010 45 220 8.7 15.6 0.00 0.37 0.23 79 1001.3
20260504211509 45 230 9.6 17.4 0.00 0.37 0.23 79 1001.5
20260504210012 43 214 10.4 15.6 0.00 0.37 0.23 80 1001.2
20260504204510 44 238 7.8 17.4 0.00 0.41 0.23 79 1000.9
20260504203005 43 228 10.4 17.4 0.00 0.41 0.23 79 1000.5
20260504201505 44 201 9.6 19.1 0.00 0.41 0.23 80 1000.4
20260504200004 46 205 11.3 18.2 0.00 0.41 0.23 79 1000.3
20260504194559 46 230 13.9 23.5 0.00 0.46 0.23 78 1000.0
20260504193055 45 228 13.0 21.7 0.00 0.46 0.23 80 999.7
20260504191607 45 230 13.0 19.1 0.00 0.46 0.23 80 999.4
20260504190049 43 233 12.2 17.4 0.00 0.46 0.23 82 999.4
20260504184546 41 230 10.4 20.0 0.00 0.46 0.23 83 999.3
20260504183046 42 234 10.4 14.8 0.00 0.46 0.23 83 999.3
20260504181544 41 207 8.7 15.6 0.00 0.46 0.23 84 999.1
20260504180041 40 226 9.6 15.6 0.00 0.46 0.23 84 999.1
20260504174539 40 231 10.4 15.6 0.00 0.46 0.23 84 998.8
20260504173037 40 234 12.2 17.4 0.00 0.46 0.23 84 998.7
20260504171534 40 230 11.3 18.2 0.00 0.46 0.23 84 998.2
20260504120107 34 264 17.4 24.3 0.02 0.42 0.19 85 990.3
20260504081557 36 262 11.3 17.4 0.05 0.38 0.15 85 977.7